AFRISTAR (25515 NORAD) Tracking and Keplerian Element Data

This shows tracking and keplerian element data for the satellite.

Feedback or suggestion? Click here.




ElementValue
Catalog25515
NameAFRISTAR
Epoch Orbit7379
Epoch Day3.93948792
Epoch Year2019
RAAN66.7525
Inclination4.4324
Eccentricity0.0006665
Argument of Perigee240.4852
Mean Anonmoly269.3496
Mean Motion0.99009023
Decay Rate-2.75E-06
L11 25515U 98063A 19003.93948792 -.00000275 00000-0 00000+0 0 9992
L22 25515 4.4324 66.7525 0006665 240.4852 269.3496 0.99009023 73793



Live tracking and technical data element details for AFRISTAR (NORAD 25515). AFRISTAR can be tracked NOW for your location showing map with azimuth and elevation plus other details from your city location.







IsCatalogInMostPopularTable: catalog: 25515, numindb: 325
Update: records affected: 1



GetName: 25515 AFRISTAR

Hit Count: updated at: Sat, 24 May 2025 16:51:40 GMT